Tracking 26940 objects as of 28-Jan-2023
HD Live streaming from Space Station
objects crossing your sky now

USA 143

Track USA 143 now!
10-day predictions
USA 143 is classified as:


NORAD ID: 25724
Int'l Code: 1999-023A
Perigee: 1,106.7 km
Apogee: 5,152.9 km
Inclination: 28.2 °
Period: 153.6 minutes
Semi major axis: 9500 km
RCS: Unknown
Launch date: April 30, 1999
Source: United States (US)
Launch site: AIR FORCE EASTERN TEST RANGE (AFETR)
Your satellite tracking list
Your tracking list is empty




NASA's NSSDC Master Catalog

Two Line Element Set (TLE):
1 25724U 99023A   23002.17865955 0.00000000  00000-0  00000-0 0    09
2 25724  28.2245 122.2163 2129399 322.5252  37.4743  9.37486014    08
Source of the keplerian elements: McCants